SL-19 DEB, 23489

Orbit data source: Space-Track

SL-19 DEB, 23489 is space debris in LEO originally from a launch on Mon, 26 Dec 1994 UTC launched from the Tyuratam Missile And Space Complex (TTMTR). Debris objects in space refer to the collection of defunct objects orbiting the Earth. Examples of debris include non-operational satellites, rocket bodies, and fragments generated from explosions, collisions, or faulty payload assembly.

Loading next visibility...
Identifier
23489, 1994-085M
Orbit
LEO
Country
Flag of CISCIS
Related business
Manufacturer
Unknown
Mission
Spacecraft
Bus & Motor
Unknown
Mass
Unknown
Launch date (UTC)
1994-12-26 (31 years ago)
Launch vehicle
Unknown
Launch site
Tyuratam Missile And Space Complex (TTMTR)
Object type
Payload
Rocket body
Debris
Shape & HBR
Unknown shape, 0.5 m
Radar Cross Section
Medium (>0.1 m² and <1 m²)

Expand to show TLE details & history
Last TLE update: 11 hours ago

TLE from 11 hours ago
0 SL-19 DEB
1 23489U 94085M   26062.35495125 -.00000770  00000-0 -20085-1 0  9994
2 23489  64.9318 195.8468 0185423 219.3161 149.8643 11.29048648284031
Epoch: 2026-03-03T08:31Z
TLE epoch observation values (Epoch: 2026-03-03T08:31:07.788Z)
Latitude
9.21785°
Longitude
-88.73715°
Altitude
2,151.325 km
Speed
6.783 km/s
True Right ascension
13h 20m 43s
True Declination
9° 10' 21"
Sunlit
Object was in full shadow at epoch
Visualization orbit readout
Latitude
Unknown
Longitude
Unknown
Altitude
Unknown
Speed
Unknown
Apparent Right ascension
Unknown
Apparent Declination
Unknown
Sunlit
N/A
Visualization observer readout
Local Sidereal Time
23:31:20
Azimuth
Unknown
Elevation
Unknown
Doppler factor
Unknown
Orbital elements
Apogee altitude
2,169.447 km
Perigee altitude
1,858.234 km
Semi-major axis
8,391.978 km
Eccentricity
0.01854
Inclination
64.9318°
RAAN
195.8468°
Arg. of periapsis
219.3161°
True anomaly
150.91001°
Mean anomaly
149.8643°
Eccentric anomaly
150.38924°
Mean motion
2.82323 °/min
Orbital period
127.51 mins
BSTAR
-0.020085
Loading maneuver chart data...
Computing Atmospheric mass density...
Loading historical data...
Loading historical data...
Loading historical data...
Loading historical data...
Loading historical data...
Loading historical data...
Loading historical data...

Documentation

Showing up to 5 results
|